When you browse on this site, cookies collect data to enhance your experience and personalize the content and advertising you see.
Visit our Privacy Policy to learn more. By continuing to use the site, you agree to this use of cookies and data.
  • In Latvia
  • List of Countries
  • For 7 days
  • Water Temperature
  • Weather Map
  • Weather Widgets
  • user-avatar
    Login

    Hourly Weather Zelazna

    Today, 21 February, Friday

    Time Temperature Precipitation Wind Pressure Humidity
    00:00 -1°C° 0 mm 6 mps 750 mmHg 76%
    01:00 -1°C° 0 mm 6 mps 749 mmHg 77%
    02:00 -1°C° 0 mm 6 mps 748 mmHg 76%
    03:00 -1°C° 0 mm 7 mps 748 mmHg 76%
    04:00 0°C° 0 mm 7 mps 747 mmHg 76%
    05:00 0°C° 0 mm 7 mps 746 mmHg 75%
    06:00 0°C° 0 mm 7 mps 745 mmHg 75%
    07:00 +1°C° 0 mm 6 mps 745 mmHg 71%
    14:00 +2°C° 0 mm 8 mps 750 mmHg 68%
    15:00 +2°C° 0 mm 8 mps 751 mmHg 65%
    16:00 +4°C° 0 mm 7 mps 751 mmHg 62%
    17:00 +3°C° 0 mm 6 mps 752 mmHg 68%
    18:00 +2°C° 0 mm 6 mps 753 mmHg 74%
    19:00 +2°C° 0 mm 5 mps 754 mmHg 79%
    20:00 +1°C° 0 mm 5 mps 754 mmHg 81%
    21:00 +1°C° 0 mm 4 mps 754 mmHg 84%
    22:00 +1°C° 0 mm 4 mps 755 mmHg 86%
    23:00 0°C° 0 mm 4 mps 755 mmHg 87%

    Tomorrow, 22 February, Saturday

    Time Temperature Precipitation Wind Pressure Humidity
    00:00 0°C° 0 mm 4 mps 755 mmHg 88%
    01:00 0°C° 0 mm 4 mps 756 mmHg 89%
    02:00 0°C° 0 mm 4 mps 755 mmHg 89%
    03:00 -1°C° 0 mm 4 mps 755 mmHg 89%
    04:00 -1°C° 0 mm 4 mps 755 mmHg 90%
    05:00 -1°C° 0 mm 4 mps 755 mmHg 88%
    06:00 -1°C° 0 mm 5 mps 754 mmHg 86%
    07:00 -2°C° 0 mm 6 mps 754 mmHg 84%
    08:00 +1°C° 0 mm 6 mps 754 mmHg 77%
    09:00 +2°C° 0 mm 7 mps 753 mmHg 70%
    10:00 +2°C° 0 mm 8 mps 752 mmHg 63%
    11:00 +4°C° 0 mm 8 mps 751 mmHg 62%
    12:00 +5°C° 0 mm 9 mps 751 mmHg 61%
    13:00 +5°C° 0 mm 9 mps 750 mmHg 60%
    14:00 +6°C° 0 mm 9 mps 749 mmHg 57%
    15:00 +6°C° 0 mm 9 mps 748 mmHg 55%
    16:00 +6°C° 0 mm 9 mps 747 mmHg 52%
    17:00 +6°C° 0 mm 9 mps 747 mmHg 52%
    18:00 +7°C° 0 mm 9 mps 746 mmHg 52%
    19:00 +7°C° 0 mm 9 mps 746 mmHg 52%
    20:00 +7°C° 0 mm 9 mps 746 mmHg 54%
    21:00 +7°C° 0 mm 10 mps 746 mmHg 56%
    22:00 +7°C° 0 mm 10 mps 745 mmHg 58%
    23:00 +6°C° 0.4 mm 9 mps 745 mmHg 67%

    Day after tomorrow, 23 February, Sunday

    Time Temperature Precipitation Wind Pressure Humidity
    00:00 +5°C° 0.4 mm 8 mps 746 mmHg 75%
    01:00 +4°C° 0.4 mm 8 mps 746 mmHg 84%
    02:00 +4°C° 0.5 mm 8 mps 746 mmHg 78%
    03:00 +2°C° 0.5 mm 8 mps 746 mmHg 71%
    04:00 +2°C° 0.5 mm 9 mps 746 mmHg 65%
    05:00 +1°C° 0.1 mm 8 mps 746 mmHg 72%
    06:00 +1°C° 0.1 mm 8 mps 747 mmHg 79%
    07:00 0°C° 0.1 mm 8 mps 747 mmHg 86%
    08:00 +1°C° 0.1 mm 8 mps 747 mmHg 77%
    09:00 +1°C° 0.1 mm 9 mps 747 mmHg 69%
    10:00 +2°C° 0.1 mm 9 mps 747 mmHg 60%
    11:00 +2°C° 0 mm 9 mps 747 mmHg 60%
    12:00 +2°C° 0 mm 9 mps 747 mmHg 59%
    13:00 +3°C° 0 mm 9 mps 746 mmHg 58%
    14:00 +4°C° 0.1 mm 8 mps 746 mmHg 63%
    15:00 +3°C° 0.1 mm 7 mps 745 mmHg 67%
    16:00 +3°C° 0.1 mm 6 mps 744 mmHg 71%
    17:00 +3°C° 0.7 mm 6 mps 742 mmHg 79%
    18:00 +2°C° 0.7 mm 5 mps 741 mmHg 87%
    19:00 +2°C° 0.7 mm 5 mps 739 mmHg 95%
    20:00 +3°C° 2 mm 4 mps 737 mmHg 95%
    21:00 +3°C° 2 mm 4 mps 735 mmHg 96%
    22:00 +3°C° 2 mm 3 mps 733 mmHg 96%
    23:00 +2°C° 0.7 mm 6 mps 734 mmHg 95%

    24 February, Monday

    Time Temperature Precipitation Wind Pressure Humidity
    00:00 0°C° 0.7 mm 8 mps 736 mmHg 95%
    01:00 -1°C° 0.7 mm 11 mps 737 mmHg 94%
    02:00 -2°C° 0.5 mm 11 mps 738 mmHg 92%
    03:00 -2°C° 0.5 mm 11 mps 740 mmHg 91%
    04:00 -2°C° 0.5 mm 11 mps 742 mmHg 89%
    05:00 -2°C° 0.1 mm 10 mps 743 mmHg 87%
    06:00 -2°C° 0.1 mm 10 mps 744 mmHg 86%
    07:00 -2°C° 0.1 mm 10 mps 745 mmHg 84%
    08:00 0°C° 0.1 mm 9 mps 746 mmHg 82%
    09:00 0°C° 0.1 mm 9 mps 747 mmHg 80%
    10:00 0°C° 0.1 mm 8 mps 748 mmHg 78%
    11:00 +1°C° 0.1 mm 8 mps 749 mmHg 75%
    12:00 +3°C° 0.1 mm 7 mps 750 mmHg 71%
    13:00 +3°C° 0.1 mm 7 mps 750 mmHg 68%
    14:00 +3°C° 0 mm 6 mps 751 mmHg 68%
    15:00 +3°C° 0 mm 6 mps 751 mmHg 67%
    16:00 +3°C° 0 mm 5 mps 751 mmHg 66%
    17:00 +3°C° 0 mm 4 mps 751 mmHg 70%
    18:00 +3°C° 0 mm 4 mps 751 mmHg 73%
    19:00 +2°C° 0 mm 3 mps 751 mmHg 77%
    20:00 +2°C° 0 mm 3 mps 750 mmHg 77%
    21:00 +2°C° 0 mm 3 mps 750 mmHg 78%
    22:00 +1°C° 0 mm 4 mps 749 mmHg 78%
    23:00 +1°C° 0 mm 5 mps 748 mmHg 76%

    25 February, Tuesday

    Time Temperature Precipitation Wind Pressure Humidity
    00:00 +1°C° 0 mm 6 mps 747 mmHg 75%
    01:00 0°C° 0 mm 7 mps 746 mmHg 73%
    02:00 +2°C° 0.1 mm 7 mps 745 mmHg 72%
    03:00 +1°C° 0.1 mm 8 mps 744 mmHg 71%
    04:00 +2°C° 0.1 mm 8 mps 743 mmHg 71%
    05:00 +2°C° 0.1 mm 8 mps 742 mmHg 74%
    06:00 +4°C° 0.1 mm 8 mps 742 mmHg 76%
    07:00 +4°C° 0.1 mm 8 mps 741 mmHg 79%
    08:00 +5°C° 0 mm 8 mps 741 mmHg 79%
    09:00 +6°C° 0 mm 8 mps 740 mmHg 79%
    10:00 +6°C° 0 mm 8 mps 740 mmHg 78%
    11:00 +6°C° 0 mm 8 mps 740 mmHg 78%
    12:00 +8°C° 0 mm 7 mps 740 mmHg 77%
    13:00 +8°C° 0 mm 7 mps 740 mmHg 77%
    14:00 +8°C° 0.1 mm 7 mps 739 mmHg 76%
    15:00 +8°C° 0.1 mm 6 mps 739 mmHg 76%
    16:00 +8°C° 0.1 mm 6 mps 738 mmHg 75%
    17:00 +8°C° 0.3 mm 6 mps 738 mmHg 79%
    18:00 +7°C° 0.3 mm 6 mps 738 mmHg 82%
    19:00 +7°C° 0.3 mm 6 mps 738 mmHg 85%
    20:00 +6°C° 0.2 mm 5 mps 738 mmHg 85%
    21:00 +6°C° 0.2 mm 5 mps 738 mmHg 85%
    22:00 +5°C° 0.2 mm 4 mps 738 mmHg 85%
    23:00 +5°C° 0 mm 4 mps 737 mmHg 84%

    26 February, Wednesday

    Time Temperature Precipitation Wind Pressure Humidity
    00:00 +4°C° 0 mm 3 mps 737 mmHg 83%
    01:00 +4°C° 0 mm 2 mps 737 mmHg 81%
    02:00 +3°C° 0 mm 3 mps 736 mmHg 81%
    03:00 +3°C° 0 mm 4 mps 736 mmHg 80%
    04:00 +1°C° 0 mm 4 mps 736 mmHg 80%
    05:00 +1°C° 0 mm 4 mps 736 mmHg 80%
    06:00 +1°C° 0 mm 4 mps 735 mmHg 80%
    07:00 0°C° 0 mm 4 mps 735 mmHg 80%
    08:00 +1°C° 0 mm 5 mps 735 mmHg 74%
    09:00 +3°C° 0 mm 6 mps 734 mmHg 68%
    10:00 +4°C° 0 mm 8 mps 734 mmHg 62%
    11:00 +4°C° 0.1 mm 8 mps 734 mmHg 58%
    12:00 +3°C° 0.1 mm 9 mps 733 mmHg 54%
    13:00 +5°C° 0.1 mm 10 mps 733 mmHg 49%
    14:00 +3°C° 0 mm 9 mps 732 mmHg 48%
    15:00 +4°C° 0 mm 8 mps 732 mmHg 47%
    16:00 +4°C° 0 mm 7 mps 732 mmHg 46%
    17:00 +3°C° 0 mm 6 mps 733 mmHg 51%
    18:00 +3°C° 0 mm 4 mps 733 mmHg 56%
    19:00 +2°C° 0 mm 3 mps 733 mmHg 61%
    20:00 +1°C° 0 mm 4 mps 734 mmHg 66%
    21:00 0°C° 0 mm 4 mps 734 mmHg 71%
    22:00 0°C° 0 mm 5 mps 734 mmHg 76%
    23:00 0°C° 0.1 mm 5 mps 734 mmHg 80%
    Show more